EW7755 Weather Reports


time (UTC)temp
F
wind
direction
speed
knots
gust
knots
rain 1hr
in
rain 24hr
in
rain mn
in
humidity
%
barometer
mb
20260507154010 58 258 11.3 18.2 0.00 0.21 0.00 42 1014.2
20260507153511 58 258 10.4 19.1 0.00 0.21 0.00 44 1014.2
20260507153010 57 266 11.3 19.1 0.00 0.22 0.00 44 1014.2
20260507152510 57 258 12.2 17.4 0.00 0.22 0.00 43 1014.2
20260507152011 57 265 11.3 16.5 0.00 0.23 0.00 44 1014.2
20260507151509 56 257 9.6 15.6 0.00 0.23 0.00 45 1014.2
20260507151012 56 223 10.4 17.4 0.00 0.23 0.00 44 1014.2
20260507150734 55 223 12.2 20.0 0.00 0.23 0.00 46 1014.2
20260507150010 55 257 13.0 20.0 0.00 0.24 0.00 45 1014.2
20260507145511 55 296 13.9 19.1 0.00 0.24 0.00 45 1014.2
20260507145009 54 248 12.2 20.9 0.00 0.24 0.00 45 1014.4
20260507144732 54 214 13.0 22.6 0.00 0.24 0.00 45 1014.1
20260507144228 54 238 14.8 23.5 0.00 0.25 0.00 46 1014.2
20260507143510 53 254 14.8 23.5 0.00 0.25 0.00 49 1014.2
20260507143011 52 238 13.9 20.0 0.00 0.25 0.00 49 1014.1
20260507142509 51 279 8.7 20.0 0.00 0.25 0.00 50 1014.2
20260507142009 51 264 12.2 18.2 0.00 0.25 0.00 51 1014.1
20260507141511 49 241 10.4 18.2 0.00 0.25 0.00 53 1014.2
20260507141241 48 250 13.0 18.2 0.00 0.25 0.00 54 1014.2
20260507140510 48 279 13.0 19.1 0.00 0.25 0.00 55 1014.1
20260507140009 47 254 11.3 20.0 0.00 0.25 0.00 56 1014.1
20260507135508 46 238 13.0 20.0 0.00 0.25 0.00 56 1014.1
20260507135009 46 257 13.0 20.0 0.00 0.25 0.00 57 1014.1
20260507134509 45 244 15.6 20.0 0.00 0.26 0.00 60 1014.0
20260507134009 44 255 13.0 19.1 0.00 0.26 0.00 60 1013.9
20260507133508 44 234 13.0 18.2 0.00 0.26 0.00 60 1013.9
20260507133227 43 223 13.0 18.2 0.00 0.26 0.00 62 1013.9
20260507132731 43 219 13.0 23.5 0.00 0.26 0.00 63 1013.9
20260507132002 42 238 15.6 23.5 0.00 0.26 0.00 63 1013.9
20260507131732 42 237 13.9 20.0 0.00 0.26 0.00 64 1013.7
20260507131002 41 254 14.8 19.1 0.00 0.26 0.00 65 1013.7
20260507130503 41 221 13.9 19.1 0.00 0.26 0.00 66 1013.7
20260507130221 40 237 13.0 18.2 0.00 0.26 0.00 66 1013.6
20260507125456 40 248 13.9 18.2 0.00 0.26 0.00 66 1013.4
20260507124457 39 238 14.8 19.1 0.00 0.26 0.00 67 1013.3
20260507123958 38 226 13.0 18.2 0.00 0.26 0.00 68 1013.4
20260507123453 38 237 13.0 17.4 0.00 0.26 0.00 68 1013.3
20260507122451 37 235 13.9 17.4 0.00 0.26 0.00 69 1013.4
20260507121952 37 231 12.2 17.4 0.00 0.26 0.00 70 1013.2
20260507121448 37 227 11.3 17.4 0.00 0.26 0.00 70 1013.2
20260507120948 37 247 12.2 15.6 0.00 0.26 0.00 71 1013.2
20260507120445 37 226 12.2 17.4 0.00 0.26 0.00 71 1013.3
20260507115944 37 243 11.3 17.4 0.00 0.26 0.00 71 1013.2
20260507115445 37 250 11.3 13.9 0.00 0.26 0.00 71 1013.1
20260507115202 37 214 10.4 15.6 0.00 0.26 0.00 71 1013.2
20260507114440 37 227 10.4 15.6 0.00 0.26 0.00 71 1013.2
20260507113937 37 226 11.3 15.6 0.00 0.26 0.00 72 1013.2
20260507113437 37 224 10.4 16.5 0.00 0.26 0.00 72 1013.1
20260507113157 37 223 11.3 16.5 0.00 0.26 0.00 72 1013.1
20260507112436 37 224 11.3 16.5 0.00 0.26 0.00 73 1013.2
20260507111931 36 227 12.2 16.5 0.00 0.26 0.00 73 1013.3
20260507111432 36 216 11.3 16.5 0.00 0.26 0.00 73 1013.3
20260507110932 36 233 13.0 17.4 0.00 0.26 0.00 74 1013.4
20260507110432 36 224 10.4 17.4 0.00 0.26 0.00 74 1013.4
20260507105931 36 234 11.3 17.4 0.00 0.26 0.00 74 1013.4
20260507105431 36 226 10.4 17.4 0.00 0.26 0.00 75 1013.6
20260507104931 36 237 12.2 17.4 0.00 0.26 0.00 75 1013.7
20260507104432 36 228 11.3 15.6 0.00 0.26 0.00 75 1013.7
20260507103933 36 231 11.3 19.1 0.00 0.26 0.00 75 1013.7
20260507103431 36 238 10.4 19.1 0.00 0.26 0.00 76 1013.9
20260507102932 36 234 9.6 13.9 0.00 0.26 0.00 76 1013.8
20260507102431 36 212 9.6 14.8 0.00 0.26 0.00 76 1013.8
20260507101932 36 223 9.6 14.8 0.00 0.26 0.00 76 1013.7
20260507101429 36 219 9.6 15.6 0.00 0.26 0.00 77 1013.7
20260507101201 36 228 10.4 15.6 0.00 0.26 0.00 77 1013.7
20260507100424 36 212 10.4 16.5 0.00 0.26 0.00 77 1013.8
20260507100143 36 226 11.3 16.5 0.00 0.26 0.00 77 1013.9
20260507095413 36 214 11.3 17.4 0.00 0.26 0.00 77 1013.8
20260507094909 36 227 13.0 17.4 0.00 0.26 0.00 78 1013.9
20260507094410 36 230 11.3 16.5 0.00 0.26 0.00 78 1013.8
20260507093909 36 241 12.2 15.6 0.00 0.26 0.00 79 1013.8
20260507093405 36 214 12.2 15.6 0.00 0.26 0.00 79 1013.8
20260507092906 36 234 12.2 15.6 0.00 0.26 0.00 80 1013.9
20260507092405 36 237 10.4 15.6 0.00 0.26 0.00 80 1014.0
20260507091905 36 250 12.2 17.4 0.00 0.26 0.00 80 1014.0
20260507091403 36 227 12.2 17.4 0.00 0.26 0.00 81 1013.9
20260507090903 36 231 13.0 16.5 0.00 0.26 0.00 82 1014.0
20260507090403 35 240 10.4 16.5 0.00 0.26 0.00 82 1014.0
20260507085904 35 228 10.4 16.5 0.00 0.26 0.00 82 1014.0
20260507085402 35 234 10.4 15.6 0.00 0.26 0.00 82 1014.1
20260507084902 35 233 9.6 15.6 0.00 0.26 0.00 82 1014.1
20260507084402 35 237 9.6 13.9 0.00 0.26 0.00 82 1014.2
20260507083902 35 250 8.7 13.9 0.00 0.26 0.00 82 1014.1
20260507082902 35 212 9.6 13.9 0.00 0.26 0.00 82 1014.2
20260507082402 35 240 9.6 13.0 0.00 0.26 0.00 82 1014.4
20260507081903 35 234 9.6 13.9 0.00 0.26 0.00 82 1014.5
20260507081403 35 247 9.6 16.5 0.00 0.26 0.00 82 1014.5
20260507080404 36 237 12.2 17.4 0.00 0.26 0.00 82 1014.6
20260507075902 36 227 12.2 18.2 0.00 0.26 0.00 82 1014.6
20260507075403 36 231 13.9 18.2 0.00 0.26 0.00 82 1014.6
20260507074903 36 214 13.0 18.2 0.00 0.26 0.00 82 1014.8
20260507074403 36 226 12.2 18.2 0.00 0.26 0.00 82 1014.8
20260507073902 36 224 13.0 18.2 0.00 0.26 0.00 82 1014.8
20260507073402 36 237 12.2 18.2 0.00 0.26 0.00 82 1014.9
20260507072903 36 228 13.0 18.2 0.00 0.26 0.00 82 1015.0
20260507072622 36 219 13.0 19.1 0.00 0.27 0.00 82 1015.0
20260507071901 36 237 13.0 19.1 0.00 0.27 0.00 82 1015.0
20260507071404 36 227 13.9 20.9 0.00 0.27 0.00 81 1015.2
20260507070906 36 214 13.0 20.9 0.00 0.27 0.00 81 1015.2
20260507070402 36 200 13.9 22.6 0.00 0.27 0.00 81 1015.2
20260507070131 36 216 14.8 22.6 0.00 0.27 0.00 81 1015.2
20260507065401 36 235 13.9 22.6 0.00 0.27 0.00 81 1015.3
20260507064402 36 228 16.5 25.2 0.00 0.27 0.00 80 1015.3
20260507063903 36 217 15.6 22.6 0.00 0.27 0.00 80 1015.3
20260507063402 36 237 14.8 24.3 0.00 0.27 0.00 80 1015.3
20260507062902 36 221 16.5 24.3 0.00 0.27 0.00 80 1015.4
20260507062402 36 227 15.6 23.5 0.00 0.27 0.00 80 1015.4
20260507061903 36 217 15.6 20.9 0.00 0.27 0.00 80 1015.4
20260507061627 36 214 13.9 19.1 0.00 0.27 0.00 80 1015.4
20260507061127 35 235 13.0 19.1 0.00 0.27 0.00 80 1015.4
20260507060404 35 202 13.0 18.2 0.00 0.27 0.00 80 1015.5
20260507055903 35 189 11.3 17.4 0.00 0.27 0.27 80 1015.5
20260507055403 35 203 11.3 17.4 0.00 0.27 0.27 80 1015.6
20260507055123 35 216 10.4 16.5 0.00 0.27 0.27 80 1015.5
20260507054404 35 197 9.6 15.6 0.00 0.27 0.27 80 1015.6
20260507053903 35 186 9.6 17.4 0.00 0.27 0.27 80 1015.7
20260507053403 35 221 10.4 17.4 0.00 0.27 0.27 80 1015.7
20260507052903 35 227 10.4 17.4 0.00 0.27 0.27 80 1015.8
20260507052400 35 223 11.3 17.4 0.00 0.27 0.27 81 1016.0
20260507051858 35 230 12.2 14.8 0.00 0.27 0.27 81 1016.1
20260507051357 35 234 8.7 13.9 0.00 0.27 0.27 81 1016.1
20260507050857 35 204 9.6 14.8 0.00 0.27 0.27 80 1016.2
20260507050356 35 233 10.4 15.6 0.00 0.27 0.27 80 1016.2
20260507045856 35 235 9.6 15.6 0.00 0.27 0.27 80 1016.3
20260507045356 35 221 10.4 14.8 0.00 0.27 0.27 80 1016.4
20260507045121 35 203 9.6 16.5 0.00 0.27 0.27 80 1016.4
20260507044357 36 204 9.6 16.5 0.00 0.27 0.27 80 1016.5
20260507043857 36 223 8.7 13.9 0.00 0.27 0.27 80 1016.5
20260507043359 36 210 9.6 16.5 0.00 0.27 0.27 80 1016.8
20260507042857 36 216 8.7 16.5 0.00 0.27 0.27 79 1016.8
20260507041855 36 224 8.7 13.0 0.00 0.27 0.27 78 1016.8
20260507041356 36 220 7.8 13.9 0.00 0.27 0.27 78 1016.9
20260507040856 36 223 9.6 13.9 0.00 0.27 0.27 77 1016.9
20260507040356 36 223 9.6 13.0 0.00 0.27 0.27 76 1017.0
20260507035855 37 217 9.6 13.0 0.00 0.27 0.27 76 1017.1
20260507035355 37 214 7.0 13.0 0.00 0.27 0.27 75 1017.1
20260507034855 37 219 8.7 12.2 0.00 0.28 0.27 75 1017.1
20260507034354 37 214 7.8 11.3 0.00 0.28 0.27 74 1017.2
20260507033855 37 228 7.8 10.4 0.00 0.28 0.27 74 1017.2
20260507033354 38 228 7.8 11.3 0.00 0.28 0.27 73 1017.1
20260507032854 38 231 8.7 12.2 0.00 0.28 0.27 72 1017.2
20260507032355 38 228 7.8 12.2 0.00 0.28 0.27 72 1017.2
20260507031855 38 228 8.7 12.2 0.00 0.28 0.27 71 1017.3
20260507031353 38 240 8.7 12.2 0.00 0.28 0.27 70 1017.5
20260507030854 39 234 8.7 11.3 0.00 0.28 0.27 70 1017.3
20260507030355 39 227 7.8 9.6 0.00 0.28 0.27 69 1017.3
20260507025854 39 235 7.0 10.4 0.00 0.28 0.27 69 1017.3
20260507025354 40 223 7.8 10.4 0.00 0.28 0.27 68 1017.3
20260507024853 40 240 7.8 9.6 0.00 0.28 0.27 67 1017.3
20260507024626 40 247 7.0 10.4 0.00 0.28 0.27 67 1017.2
20260507023854 40 243 7.0 10.4 0.00 0.28 0.27 66 1017.2
20260507023355 41 238 7.0 10.4 0.00 0.28 0.27 66 1017.1
20260507023117 41 224 6.1 10.4 0.00 0.28 0.27 65 1017.1
20260507022353 41 243 6.1 10.4 0.00 0.28 0.27 65 1017.1
20260507021854 42 244 7.0 9.6 0.00 0.28 0.27 65 1017.0
20260507021352 42 245 6.1 9.6 0.00 0.28 0.27 64 1017.0
20260507020854 42 226 6.1 8.7 0.00 0.28 0.27 64 1016.9
20260507020353 43 224 5.2 9.6 0.00 0.28 0.27 63 1016.9
20260507015853 43 250 5.2 9.6 0.00 0.28 0.27 62 1016.8
20260507015614 43 224 5.2 8.7 0.00 0.28 0.27 62 1016.9
20260507014853 43 220 4.3 8.7 0.00 0.28 0.27 61 1016.9
20260507014615 44 207 6.1 8.7 0.00 0.28 0.27 61 1016.9
20260507013851 44 212 5.2 9.6 0.00 0.28 0.27 61 1016.9
20260507013352 44 217 6.1 9.6 0.00 0.28 0.27 60 1016.8
20260507012851 44 200 4.3 10.4 0.00 0.28 0.27 61 1016.9
20260507012617 44 230 5.2 12.2 0.00 0.28 0.27 61 1016.9
20260507011853 44 217 7.0 13.0 0.00 0.28 0.27 60 1016.9
20260507011353 44 230 8.7 13.0 0.00 0.28 0.27 59 1016.9
20260507010851 44 231 7.0 8.7 0.00 0.29 0.27 57 1016.9
20260507010614 45 224 4.3 8.7 0.00 0.29 0.27 57 1016.8
20260507005853 45 247 4.3 8.7 0.00 0.29 0.27 57 1016.9
20260507005351 45 261 3.5 10.4 0.00 0.29 0.27 57 1017.0
20260507004850 45 240 5.2 10.4 0.00 0.29 0.27 55 1016.9
20260507004350 46 255 3.5 8.7 0.00 0.30 0.27 54 1017.0
20260507003851 46 310 5.2 10.4 0.00 0.30 0.27 54 1017.0
20260507003350 46 220 6.1 10.4 0.00 0.30 0.27 54 1017.1
20260507002850 46 233 7.0 10.4 0.00 0.31 0.27 55 1017.0
20260507002350 47 251 6.1 13.9 0.00 0.31 0.27 52 1017.1
20260507001851 47 252 8.7 13.9 0.00 0.31 0.27 51 1017.0
20260507001351 47 240 6.1 13.0 0.00 0.31 0.27 51 1017.1
20260507000851 47 235 9.6 13.0 0.00 0.32 0.27 52 1017.1
20260507000350 47 240 7.8 14.8 0.00 0.32 0.27 50 1017.2
20260506235851 48 259 10.4 14.8 0.00 0.32 0.27 51 1017.2
20260506235349 47 234 7.8 14.8 0.00 0.33 0.27 49 1017.2
20260506234851 48 227 6.1 12.2 0.00 0.33 0.27 47 1017.2
20260506234350 49 238 7.8 12.2 0.00 0.33 0.27 51 1017.3
20260506233849 49 275 4.3 11.3 0.00 0.33 0.27 51 1017.2
20260506233350 49 258 6.1 18.2 0.00 0.33 0.27 50 1017.3
20260506232850 49 243 12.2 18.2 0.00 0.33 0.27 50 1017.2
20260506232349 49 259 7.8 13.9 0.00 0.34 0.27 51 1017.2
20260506231850 49 220 7.8 13.9 0.00 0.34 0.27 51 1017.1
20260506231350 47 207 7.0 13.9 0.00 0.34 0.27 51 1017.1
20260506230850 48 210 5.2 13.9 0.00 0.34 0.27 50 1017.1
20260506230348 48 237 7.0 11.3 0.00 0.34 0.27 53 1017.2
20260506225847 47 224 4.3 10.4 0.00 0.34 0.27 52 1017.3
20260506225349 47 323 5.2 10.4 0.00 0.34 0.27 54 1017.3
20260506225112 47 243 7.8 11.3 0.00 0.34 0.27 53 1017.3
20260506224347 47 266 5.2 11.3 0.00 0.34 0.27 54 1017.3
20260506223848 48 254 7.0 11.3 0.00 0.34 0.27 54 1017.3
20260506223348 48 231 5.2 11.3 0.00 0.34 0.27 54 1017.3
20260506222847 47 272 3.5 9.6 0.00 0.34 0.27 54 1017.3
20260506222348 47 278 5.2 9.6 0.00 0.34 0.27 53 1017.5
20260506221850 47 309 4.3 6.1 0.00 0.34 0.27 55 1017.5
20260506221347 47 296 2.6 7.8 0.00 0.34 0.27 53 1017.6
20260506220850 47 281 4.3 8.7 0.00 0.34 0.27 55 1017.7
20260506220346 48 265 5.2 8.7 0.00 0.34 0.27 53 1017.6
20260506220110 47 266 2.6 7.8 0.00 0.34 0.27 53 1017.6
20260506215347 47 251 2.6 8.7 0.00 0.35 0.27 54 1017.6
20260506214846 47 227 5.2 9.6 0.00 0.35 0.27 54 1017.7
20260506214611 47 281 3.5 9.6 0.00 0.35 0.27 56 1017.7
20260506213844 46 285 2.6 6.1 0.00 0.35 0.27 56 1017.8
20260506213557 46 279 3.5 6.1 0.00 0.35 0.27 55 1017.8
20260506212841 45 296 0.9 6.1 0.00 0.36 0.27 53 1017.8
20260506212337 46 289 4.3 7.8 0.00 0.36 0.27 57 1017.9
20260506211834 45 295 5.2 7.8 0.00 0.36 0.27 56 1017.9
20260506210831 46 288 3.5 9.6 0.00 0.37 0.27 56 1018.0
20260506210332 45 289 4.3 9.6 0.00 0.38 0.27 56 1018.1
20260506205832 45 185 2.6 5.2 0.00 0.38 0.27 55 1018.0
20260506205600 45 288 1.7 5.2 0.00 0.38 0.27 60 1018.3
20260506204832 44 292 1.7 6.1 0.00 0.39 0.27 54 1018.3
20260506204332 45 213 2.6 6.1 0.00 0.39 0.27 58 1018.3
20260506204059 44 324 0.0 6.1 0.00 0.39 0.27 56 1018.3
20260506203329 45 327 2.6 6.1 0.00 0.40 0.27 56 1018.4
20260506202826 45 306 1.7 4.3 0.00 0.40 0.27 58 1018.5
20260506202325 45 8 1.7 3.5 0.00 0.41 0.27 56 1018.6
20260506201826 45 161 0.9 7.8 0.00 0.41 0.27 57 1018.6
20260506201323 45 158 4.3 7.8 0.00 0.42 0.27 59 1018.7
20260506200823 45 123 2.6 4.3 0.00 0.42 0.27 58 1018.7
20260506200319 45 152 1.7 3.5 0.00 0.42 0.27 58 1018.7
20260506195312 46 295 0.0 7.8 0.00 0.43 0.27 58 1018.8
20260506194811 46 327 2.6 7.8 0.00 0.43 0.27 60 1018.8
20260506194311 45 310 4.3 6.1 0.00 0.43 0.27 63 1018.9
20260506193808 44 250 1.7 4.3 0.00 0.44 0.27 62 1018.8
20260506193526 44 345 1.7 4.3 0.00 0.44 0.27 61 1018.8
20260506192806 43 292 2.6 5.2 0.00 0.44 0.27 60 1018.8
20260506192306 44 4 2.6 8.7 0.00 0.44 0.27 62 1018.8
20260506191805 44 38 3.5 8.7 0.00 0.45 0.27 62 1018.8
20260506191523 43 44 0.9 6.1 0.00 0.45 0.27 60 1018.9
20260506191025 43 8 2.6 6.1 0.00 0.46 0.27 62 1018.9
20260506185804 43 61 4.3 7.8 0.00 0.46 0.27 63 1018.9
20260506185306 43 52 1.7 7.8 0.00 0.46 0.27 64 1018.9
20260506184804 43 0 3.5 6.1 0.01 0.47 0.27 64 1018.9
20260506184302 43 47 0.9 6.1 0.01 0.47 0.27 62 1018.9
20260506183803 43 49 2.6 9.6 0.01 0.47 0.27 58 1018.9
20260506183303 43 14 3.5 9.6 0.02 0.47 0.27 60 1019.1
20260506182802 44 354 3.5 7.8 0.02 0.47 0.27 62 1018.9
20260506182306 43 323 4.3 10.4 0.03 0.48 0.27 63 1018.9
20260506181804 43 52 7.0 10.4 0.03 0.48 0.27 63 1019.1
20260506181305 42 1 3.5 9.6 0.04 0.48 0.27 60 1018.9
20260506180803 43 45 6.1 9.6 0.04 0.48 0.27 64 1019.1
20260506180303 43 55 3.5 8.7 0.05 0.48 0.27 62 1019.1
20260506175803 43 4 3.5 8.7 0.06 0.49 0.27 66 1019.1
20260506175305 43 0 5.2 9.6 0.07 0.49 0.27 67 1019.1
20260506174804 42 31 4.3 9.6 0.07 0.48 0.26 65 1019.2
20260506174527 42 38 3.5 9.6 0.08 0.48 0.26 65 1019.2
20260506173803 42 41 6.1 9.6 0.09 0.48 0.26 65 1019.3
20260506173302 42 89 6.1 11.3 0.10 0.47 0.25 71 1019.2
20260506172803 42 55 7.0 11.3 0.11 0.47 0.25 68 1019.1
20260506172306 41 30 4.3 11.3 0.11 0.46 0.24 69 1019.1
20260506171801 41 41 6.1 11.3 0.12 0.47 0.24 70 1019.1
20260506171301 41 54 8.7 13.0 0.12 0.46 0.23 71 1018.9
20260506170252 41 31 7.0 12.2 0.14 0.45 0.22 77 1018.9
20260506165752 40 35 3.5 13.0 0.14 0.44 0.21 74 1018.9
20260506165249 40 7 8.7 13.0 0.13 0.43 0.20 76 1019.2
20260506165012 40 52 6.1 13.9 0.13 0.42 0.19 78 1019.1
20260506164246 40 38 9.6 13.9 0.12 0.41 0.18 77 1019.1
20260506164007 40 32 6.1 13.9 0.11 0.41 0.17 80 1018.9
20260506163510 39 49 7.8 13.9 0.10 0.39 0.15 82 1018.9
20260506162956 39 34 7.8 11.3 0.09 0.39 0.14 86 1018.8
20260506162244 38 66 7.0 11.3 0.08 0.39 0.13 87 1018.8
20260506161739 38 49 5.2 10.4 0.08 0.38 0.12 89 1018.8
20260506161241 38 31 6.1 10.4 0.07 0.37 0.11 90 1018.8
20260506160739 39 18 5.2 9.6 0.06 0.36 0.10 92 1018.8
20260506160241 38 25 6.1 8.7 0.05 0.35 0.08 92 1018.7
20260506155738 37 8 5.2 8.7 0.04 0.34 0.07 92 1018.7
20260506155241 37 31 4.3 8.7 0.04 0.35 0.07 92 1018.8
20260506154738 37 10 5.2 8.7 0.03 0.34 0.06 93 1018.7
20260506154241 36 4 3.5 7.8 0.03 0.34 0.06 93 1018.7